Location: ????
(55.2778°N, 39.2433°E)
Time: 20:40:28
(UTC+00:00)

Envisat - Pass Details

Date: 14 April 2024
Orbit: 762 x 764 km, 98.3° (Epoch: 18 May)

Event Time Altitude Azimuth Distance (km) Brightness Sun altitude
Rises 00:59:50 0° 16° (NNE) 3,244 7.1 -11.1°
Reaches altitude 10° 01:02:09 10° 17° (NNE) 2,313 6.3 -10.9°
Maximum altitude 01:07:16 81° 105° (ESE) 780 3.1 -10.3°
Drops below altitude 10° 01:12:20 10° 194° (SSW) 2,296 5.0 -9.7°
Enters shadow 01:13:59 - 195° (SSW) 2,957 5.6 -9.5°
